Toyomasa Maru — JJ3927 — position and weather

sailwx.info

Track history (hours):
 
Tides and Currents Weather Stations Pressure Air Temp Water Temp Dewpoint Dewpoint Depression Visibility Wind Speed Wind Dir Waves Ship Positions

Toyomasa Maru

Last reported at 2014-Jul-28 17:33 UTC. Time now 2014-Jul-28 20:32 UTC.
Position N 34°07' E 135°07'.

Length 101 m; draft 4.3 m.

Type: Tanker. MMSI: 431300401.

Date/timePositionNaut miles runAvg speedWind from/ knotsBaromVisibWave heightAir tempDewpointWater temp
2014-Jul-28 17:33N 34°07' E 135°07'0 0.0
2014-Jul-28 10:27N 34°07' E 135°07'7 8.2
2014-Jul-28 09:33N 34°03' E 135°00'  
2014-Jul-24 05:33N 34°07' E 135°07'1 0.1
2014-Jul-23 21:09N 34°08' E 135°07'0 0.0
2014-Jul-23 20:27N 34°08' E 135°07'0 0.0
2014-Jul-23 19:09N 34°08' E 135°07'0 0.0
2014-Jul-23 18:33N 34°08' E 135°07'0 0.0
2014-Jul-23 17:27N 34°08' E 135°07'0 0.0
2014-Jul-23 16:24N 34°08' E 135°07'0 0.1
2014-Jul-23 15:33N 34°08' E 135°07'0 0.0
2014-Jul-23 14:33N 34°08' E 135°07'0 0.0
2014-Jul-23 13:30N 34°08' E 135°07'0 0.0
2014-Jul-23 12:33N 34°08' E 135°07'9 8.9
2014-Jul-23 11:33N 34°15' E 135°00'1110.8
2014-Jul-23 10:33N 34°25' E 135°01'1111.0
2014-Jul-23 09:33N 34°36' E 135°02'5 0.1
2014-Jul-21 10:32N 34°36' E 134°56'1010.5
2014-Jul-21 09:33N 34°38' E 135°08'0 0.1
2014-Jul-21 08:20N 34°39' E 135°08'0 0.0
2014-Jul-21 07:26N 34°39' E 135°08'0 0.0
2014-Jul-21 06:20N 34°39' E 135°08'0 0.0
2014-Jul-21 05:32N 34°39' E 135°08'0 0.0
2014-Jul-21 04:33N 34°39' E 135°08'1 0.9
2014-Jul-21 03:29N 34°38' E 135°08'0 0.0
2014-Jul-21 02:23N 34°38' E 135°08'0 0.0
2014-Jul-21 01:11N 34°38' E 135°09'0 0.0
2014-Jul-21 00:23N 34°38' E 135°09'0 0.0
2014-Jul-20 23:23N 34°38' E 135°09'3 3.8
2014-Jul-20 22:33N 34°35' E 135°07'1312.4
2014-Jul-20 21:32N 34°23' E 135°02'1211.9
2014-Jul-20 20:33N 34°11' E 134°59'230 4.6
2014-Jul-18 18:21N 34°59' E 139°33'1113.5
2014-Jul-18 17:33N 35°07' E 139°43'  
Track history (hours):
 
Tides and Currents Weather Stations Pressure Air Temp Water Temp Dewpoint Dewpoint Depression Visibility Wind Speed Wind Dir Waves Ship Positions

Toyomasa Maru

Last reported at 2014-Jul-28 17:33 UTC. Time now 2014-Jul-28 20:32 UTC.
Position N 34°07' E 135°07'.

Length 101 m; draft 4.3 m.

Type: Tanker. MMSI: 431300401.

Date/timePositionNaut miles runAvg speedWind from/ knotsBaromVisibWave heightAir tempDewpointWater temp
2014-Jul-28 17:33N 34°07' E 135°07'0 0.0
2014-Jul-28 10:27N 34°07' E 135°07'7 8.2
2014-Jul-28 09:33N 34°03' E 135°00'  
2014-Jul-24 05:33N 34°07' E 135°07'1 0.1
2014-Jul-23 21:09N 34°08' E 135°07'0 0.0
2014-Jul-23 20:27N 34°08' E 135°07'0 0.0
2014-Jul-23 19:09N 34°08' E 135°07'0 0.0
2014-Jul-23 18:33N 34°08' E 135°07'0 0.0
2014-Jul-23 17:27N 34°08' E 135°07'0 0.0
2014-Jul-23 16:24N 34°08' E 135°07'0 0.1
2014-Jul-23 15:33N 34°08' E 135°07'0 0.0
2014-Jul-23 14:33N 34°08' E 135°07'0 0.0
2014-Jul-23 13:30N 34°08' E 135°07'0 0.0
2014-Jul-23 12:33N 34°08' E 135°07'9 8.9
2014-Jul-23 11:33N 34°15' E 135°00'1110.8
2014-Jul-23 10:33N 34°25' E 135°01'1111.0
2014-Jul-23 09:33N 34°36' E 135°02'5 0.1
2014-Jul-21 10:32N 34°36' E 134°56'1010.5
2014-Jul-21 09:33N 34°38' E 135°08'0 0.1
2014-Jul-21 08:20N 34°39' E 135°08'0 0.0
2014-Jul-21 07:26N 34°39' E 135°08'0 0.0
2014-Jul-21 06:20N 34°39' E 135°08'0 0.0
2014-Jul-21 05:32N 34°39' E 135°08'0 0.0
2014-Jul-21 04:33N 34°39' E 135°08'1 0.9
2014-Jul-21 03:29N 34°38' E 135°08'0 0.0
2014-Jul-21 02:23N 34°38' E 135°08'0 0.0
2014-Jul-21 01:11N 34°38' E 135°09'0 0.0
2014-Jul-21 00:23N 34°38' E 135°09'0 0.0
2014-Jul-20 23:23N 34°38' E 135°09'3 3.8
2014-Jul-20 22:33N 34°35' E 135°07'1312.4
2014-Jul-20 21:32N 34°23' E 135°02'1211.9
2014-Jul-20 20:33N 34°11' E 134°59'230 4.6
2014-Jul-18 18:21N 34°59' E 139°33'1113.5
2014-Jul-18 17:33N 35°07' E 139°43'  

Dump ship's entire track history